Home   Weather   Glace Bay   Past weeks

Flag for Canada Past Weather in Glace Bay, Nova Scotia, Canada — Yesterday and Last 2 Weeks

Now
30 °F

Passing clouds.


Feels Like: 20 °F
Forecast: 29 / 34 °F
Wind: 14 mph from Northwest

Location: Sydney

Current Time: Dec 4, 2016 at 8:39:56 pm

Latest Report: Dec 4, 2016 at 8:00 pm


Visibility: 15 mi

Pressure: 29.88 "Hg

Humidity: 80%

Dew Point: 25 °F

Location of Glace BayLocation

Past Weather in Glace Bay — Graph

°F

Glace Bay Temperature Yesterday

Maximum temperature yesterday: 39 °F (at 12:00 am)
Minimum temperature yesterday: 36 °F (at 6:00 pm)
Average temperature yesterday: 37 °F

High & Low Weather Summary for the Past Weeks

 TemperatureHumidityPressure
High61 °F (Nov 20, 11:00 am)100% (Nov 19, 7:00 pm)30.33 "Hg (Nov 19, 7:00 pm)
Low28 °F (Nov 23, 5:00 am)65% (Nov 25, 5:00 am)28.83 "Hg (Nov 27, 7:00 pm)
Average39 °F89%29.78 "Hg
* Reported Nov 19 7:00 pm — Dec 4 7:00 pm, Glace Bay, Weather by CustomWeather, © 2016

Note: Actual official high and low records may vary slightly from our data, if they occured in-between our weather recording intervals... More about our weather records

Advertising

Glace Bay Weather History for the Previous 24 Hours

Scroll right to see more
 ConditionsComfort  
Time TempWeatherWind HumidityBarometerVisibility
7:00 pm
Sun, Dec 4
32 °FPassing clouds.20 mph80%29.87 "Hg15 mi
6:00 pm32 °FPassing clouds.13 mph75%29.85 "Hg15 mi
5:00 pm32 °FPassing clouds.15 mph75%29.83 "Hg15 mi
4:00 pm32 °FPartly sunny.16 mph87%29.81 "Hg15 mi
3:00 pm32 °FLight snow. Ice fog.13 mph93%29.80 "Hg2 mi
2:00 pm30 °FLight snow. Ice fog.15 mph100%29.78 "Hg1 mi
1:53 pm32 °FLight snow. Ice fog.20 mph93%29.77 "Hg1 mi
1:00 pm32 °FLight snow. Low clouds.15 mph93%29.76 "Hg1 mi
12:00 pm32 °FSnow flurries. Partly sunny.17 mph93%29.76 "Hg2 mi
11:00 am32 °FSnow flurries. Ice fog.18 mph93%29.76 "Hg1 mi
10:00 am34 °FMostly cloudy.16 mph87%29.75 "Hg7 mi
9:00 am32 °FSnow flurries. Broken clouds.16 mph93%29.73 "Hg1 mi
8:00 am32 °FSnow flurries. Ice fog.17 mph93%29.72 "Hg1 mi
7:55 am32 °FSnow flurries. Ice fog.20 mph93%29.72 "Hg1 mi
7:00 am32 °FSnow flurries. Low clouds.14 mph100%29.70 "Hg3 mi
6:46 am32 °FSnow flurries. Ice fog.10 mph93%29.70 "Hg3 mi
6:00 am32 °FPartly cloudy.12 mph93%29.69 "Hg15 mi
5:00 am32 °FSnow flurries. Partly cloudy.9 mph93%29.67 "Hg10 mi
4:00 am34 °FSnow flurries. Mostly cloudy.13 mph87%29.67 "Hg10 mi
3:04 am36 °FLight snow. Mostly cloudy.16 mph81%29.65 "Hg7 mi
2:00 am36 °FPassing clouds.13 mph75%29.64 "Hg15 mi
1:00 am36 °FPassing clouds.16 mph81%29.62 "Hg15 mi
12:00 am36 °FPassing clouds.14 mph81%29.60 "Hg15 mi
11:00 pm
Sat, Dec 3
36 °FPassing clouds.13 mph75%29.59 "Hg15 mi
10:00 pm36 °FPassing clouds.13 mph81%29.58 "Hg15 mi
9:00 pm37 °FPassing clouds.16 mph75%29.57 "Hg15 mi
8:00 pm37 °FMostly cloudy.16 mph81%29.56 "Hg10 mi
Weather by CustomWeather, © 2016

See weather overviewHow to use our weather pages